• In Russia
  • List of Countries
  • For 7 days
  • Water Temperature
  • Satellite Maps
  • Weather Map
  • Weather Widgets
  • user-avatar
    Login

    Hourly Weather Salzburg

    Today, 28 March, Tuesday

    Time Temperature Precipitation Wind Pressure Humidity
    00:00 -2°C° 0 mm 1 mps 626 mmHg 82%
    01:00 -3°C° 0 mm 1 mps 626 mmHg 81%
    02:00 -3°C° 0 mm 1 mps 626 mmHg 80%
    03:00 -3°C° 0 mm 1 mps 626 mmHg 79%
    04:00 -3°C° 0 mm 1 mps 626 mmHg 78%
    05:00 -2°C° 0 mm 1 mps 626 mmHg 76%
    06:00 -2°C° 0 mm 1 mps 627 mmHg 74%
    07:00 -1°C° 0 mm 1 mps 627 mmHg 72%
    08:00 +2°C° 0 mm 1 mps 628 mmHg 68%
    09:00 +5°C° 0 mm 1 mps 629 mmHg 63%
    10:00 +7°C° 0 mm 0 mps 630 mmHg 59%
    11:00 +8°C° 0 mm 1 mps 630 mmHg 59%
    12:00 +9°C° 0 mm 1 mps 630 mmHg 59%
    13:00 +10°C° 0 mm 1 mps 631 mmHg 59%
    14:00 +10°C° 0 mm 1 mps 631 mmHg 62%
    15:00 +10°C° 0 mm 1 mps 630 mmHg 65%
    16:00 +9°C° 0 mm 1 mps 630 mmHg 68%
    17:00 +7°C° 0 mm 1 mps 629 mmHg 76%
    18:00 +4°C° 0 mm 1 mps 628 mmHg 85%
    19:00 +1°C° 0 mm 1 mps 627 mmHg 94%
    20:00 +1°C° 0 mm 1 mps 628 mmHg 94%
    21:00 +1°C° 0 mm 1 mps 628 mmHg 95%
    22:00 +1°C° 0 mm 1 mps 629 mmHg 95%
    23:00 +1°C° 0 mm 1 mps 629 mmHg 95%

    Tomorrow, 29 March, Wednesday

    Time Temperature Precipitation Wind Pressure Humidity
    00:00 +1°C° 0 mm 1 mps 629 mmHg 95%
    01:00 +2°C° 0 mm 1 mps 629 mmHg 95%
    02:00 +2°C° 0 mm 1 mps 630 mmHg 95%
    03:00 +2°C° 0 mm 1 mps 630 mmHg 96%
    04:00 +2°C° 0 mm 1 mps 630 mmHg 96%
    05:00 +2°C° 0.1 mm 1 mps 630 mmHg 95%
    06:00 +2°C° 0.1 mm 1 mps 630 mmHg 95%
    07:00 +3°C° 0.1 mm 1 mps 631 mmHg 94%
    08:00 +4°C° 0.1 mm 1 mps 631 mmHg 90%
    09:00 +5°C° 0.1 mm 1 mps 632 mmHg 86%
    10:00 +7°C° 0.1 mm 1 mps 632 mmHg 82%
    11:00 +7°C° 0.1 mm 1 mps 632 mmHg 79%
    12:00 +8°C° 0.1 mm 1 mps 632 mmHg 76%
    13:00 +9°C° 0.1 mm 1 mps 632 mmHg 73%
    14:00 +9°C° 0.1 mm 1 mps 632 mmHg 74%
    15:00 +9°C° 0.1 mm 1 mps 632 mmHg 74%
    16:00 +9°C° 0.1 mm 1 mps 631 mmHg 75%
    17:00 +7°C° 0 mm 1 mps 631 mmHg 82%
    18:00 +4°C° 0 mm 1 mps 630 mmHg 89%
    19:00 +2°C° 0 mm 1 mps 629 mmHg 96%
    20:00 +2°C° 0 mm 1 mps 630 mmHg 96%
    21:00 +2°C° 0 mm 1 mps 630 mmHg 96%
    22:00 +2°C° 0 mm 1 mps 631 mmHg 96%
    23:00 +2°C° 0 mm 1 mps 631 mmHg 96%

    Day after tomorrow, 30 March, Thursday

    Time Temperature Precipitation Wind Pressure Humidity
    00:00 +1°C° 0 mm 1 mps 631 mmHg 95%
    01:00 +1°C° 0 mm 1 mps 631 mmHg 94%
    02:00 +1°C° 0 mm 1 mps 630 mmHg 93%
    03:00 0°C° 0 mm 1 mps 630 mmHg 92%
    04:00 0°C° 0 mm 1 mps 630 mmHg 91%
    05:00 +1°C° 0 mm 1 mps 630 mmHg 90%
    06:00 +2°C° 0 mm 1 mps 631 mmHg 89%
    07:00 +2°C° 0 mm 1 mps 631 mmHg 87%
    08:00 +4°C° 0 mm 1 mps 632 mmHg 81%
    09:00 +7°C° 0 mm 1 mps 633 mmHg 75%
    10:00 +9°C° 0 mm 1 mps 633 mmHg 68%
    11:00 +10°C° 0 mm 1 mps 634 mmHg 65%
    12:00 +11°C° 0 mm 1 mps 634 mmHg 61%
    13:00 +12°C° 0 mm 1 mps 634 mmHg 57%
    14:00 +11°C° 0 mm 1 mps 633 mmHg 59%
    15:00 +11°C° 0 mm 1 mps 633 mmHg 61%
    16:00 +11°C° 0 mm 1 mps 632 mmHg 63%
    17:00 +8°C° 0 mm 1 mps 631 mmHg 73%
    18:00 +5°C° 0 mm 1 mps 630 mmHg 83%
    19:00 +3°C° 0 mm 1 mps 629 mmHg 93%
    20:00 +3°C° 0 mm 1 mps 630 mmHg 93%
    21:00 +3°C° 0 mm 1 mps 630 mmHg 93%
    22:00 +2°C° 0 mm 2 mps 630 mmHg 93%
    23:00 +2°C° 0 mm 2 mps 630 mmHg 92%

    31 March, Friday

    Time Temperature Precipitation Wind Pressure Humidity
    00:00 +2°C° 0 mm 2 mps 630 mmHg 92%
    01:00 +1°C° 0 mm 2 mps 630 mmHg 92%
    02:00 +1°C° 0 mm 2 mps 629 mmHg 92%
    03:00 +1°C° 0 mm 2 mps 629 mmHg 92%
    04:00 +1°C° 0 mm 2 mps 629 mmHg 93%
    05:00 +1°C° 0 mm 2 mps 629 mmHg 92%
    06:00 +2°C° 0 mm 2 mps 629 mmHg 91%
    07:00 +2°C° 0 mm 2 mps 629 mmHg 90%
    08:00 +5°C° 0 mm 2 mps 629 mmHg 82%
    09:00 +7°C° 0 mm 2 mps 630 mmHg 74%
    10:00 +9°C° 0 mm 2 mps 630 mmHg 67%
    11:00 +10°C° 0 mm 2 mps 630 mmHg 63%
    12:00 +12°C° 0 mm 2 mps 630 mmHg 59%
    13:00 +13°C° 0 mm 1 mps 631 mmHg 55%
    14:00 +13°C° 0 mm 1 mps 630 mmHg 57%
    15:00 +13°C° 0 mm 1 mps 630 mmHg 58%
    16:00 +13°C° 0 mm 1 mps 629 mmHg 60%
    17:00 +10°C° 0 mm 1 mps 628 mmHg 71%
    18:00 +7°C° 0 mm 1 mps 627 mmHg 82%
    19:00 +4°C° 0 mm 1 mps 626 mmHg 92%
    20:00 +4°C° 0 mm 1 mps 626 mmHg 92%
    21:00 +2°C° 0 mm 2 mps 626 mmHg 91%
    22:00 +2°C° 0 mm 2 mps 626 mmHg 90%
    23:00 +2°C° 0 mm 2 mps 626 mmHg 90%

    1 April, Saturday

    Time Temperature Precipitation Wind Pressure Humidity
    00:00 +2°C° 0 mm 2 mps 626 mmHg 89%
    01:00 +1°C° 0 mm 2 mps 626 mmHg 89%
    02:00 +1°C° 0 mm 2 mps 625 mmHg 88%
    03:00 +1°C° 0 mm 2 mps 625 mmHg 87%
    04:00 +1°C° 0 mm 2 mps 625 mmHg 87%
    05:00 +2°C° 0 mm 1 mps 625 mmHg 85%
    06:00 +3°C° 0 mm 1 mps 625 mmHg 83%
    07:00 +4°C° 0 mm 1 mps 626 mmHg 82%
    08:00 +6°C° 0 mm 1 mps 626 mmHg 74%
    09:00 +8°C° 0 mm 1 mps 627 mmHg 67%
    10:00 +10°C° 0 mm 1 mps 627 mmHg 59%
    11:00 +11°C° 0 mm 1 mps 627 mmHg 57%
    12:00 +12°C° 0 mm 1 mps 627 mmHg 55%
    13:00 +12°C° 0 mm 2 mps 627 mmHg 53%
    14:00 +12°C° 0.1 mm 2 mps 627 mmHg 55%
    15:00 +12°C° 0.1 mm 2 mps 627 mmHg 57%
    16:00 +12°C° 0.1 mm 2 mps 626 mmHg 59%
    17:00 +8°C° 0.1 mm 2 mps 625 mmHg 69%
    18:00 +6°C° 0.1 mm 2 mps 625 mmHg 79%
    19:00 +4°C° 0.1 mm 2 mps 624 mmHg 89%
    20:00 +3°C° 0 mm 2 mps 624 mmHg 89%
    21:00 +2°C° 0 mm 2 mps 624 mmHg 90%
    22:00 +2°C° 0 mm 2 mps 624 mmHg 90%
    23:00 +1°C° 0 mm 2 mps 624 mmHg 90%

    2 April, Sunday

    Time Temperature Precipitation Wind Pressure Humidity
    00:00 +1°C° 0 mm 2 mps 624 mmHg 91%
    01:00 -1°C° 0 mm 2 mps 624 mmHg 91%
    02:00 -1°C° 0 mm 2 mps 625 mmHg 90%
    03:00 -1°C° 0 mm 2 mps 625 mmHg 90%
    04:00 -2°C° 0 mm 2 mps 625 mmHg 89%
    05:00 +1°C° 0 mm 1 mps 625 mmHg 84%
    06:00 +2°C° 0 mm 1 mps 626 mmHg 78%
    07:00 +3°C° 0 mm 1 mps 627 mmHg 73%
    08:00 +5°C° 0 mm 1 mps 627 mmHg 68%
    09:00 +7°C° 0 mm 1 mps 628 mmHg 63%
    10:00 +9°C° 0 mm 1 mps 629 mmHg 58%
    11:00 +10°C° 0.1 mm 1 mps 629 mmHg 58%
    12:00 +10°C° 0.1 mm 1 mps 630 mmHg 57%
    13:00 +11°C° 0.1 mm 1 mps 630 mmHg 56%
    14:00 +11°C° 0.1 mm 1 mps 630 mmHg 60%
    15:00 +10°C° 0.1 mm 1 mps 629 mmHg 64%
    16:00 +10°C° 0.1 mm 1 mps 629 mmHg 67%
    17:00 +8°C° 0.1 mm 1 mps 628 mmHg 77%
    18:00 +6°C° 0.1 mm 1 mps 628 mmHg 86%
    19:00 +3°C° 0.1 mm 1 mps 627 mmHg 96%
    20:00 +3°C° 0.1 mm 1 mps 628 mmHg 96%
    21:00 +4°C° 0.1 mm 1 mps 628 mmHg 97%
    22:00 +4°C° 0.1 mm 1 mps 629 mmHg 97%
    23:00 +3°C° 0 mm 1 mps 629 mmHg 97%
    Show more